Regional Weather Roundup
Issued by NWS Huntsville, AL

Home | Current Version | Previous Version | Text Only | Print | Product List | Glossary On
Versions: 1 2 3 4 5 6 7 8 9 10 11 12 13 14 15 16 17 18 19 20 21 22 23 24 25 26 27 28 29 30 31 32 33 34 35 36 37 38 39 40 41 42 43 44 45 46 47 48 49 50
000
ASUS44 KHUN 120810
RWRHUN

WEATHER ROUNDUP FOR THE TENNESSEE VALLEY
NATIONAL WEATHER SERVICE HUNTSVILLE AL
200 AM CST FRI FEB 12 2016

ALZ001>004-120900-
NORTHWEST ALABAMA

CITY           SKY/WX    TMP DP  RH WIND       PRES   REMARKS
COURTLAND HCN    N/A     37 N/A N/A CALM        N/A
RUSSELLVILLE     N/A     36 N/A N/A MISG        N/A
SHOALS AIRPORT MOCLDY    38  24  57 CALM      30.16F
SHOALS TVA RES   N/A     37 N/A N/A MISG        N/A
$$

ALZ005>007-016-120900-
NORTH CENTRAL ALABAMA

CITY           SKY/WX    TMP DP  RH WIND       PRES   REMARKS
DECATUR AP     CLOUDY    36  25  64 SE3       30.17F
HUNTSVILLE AP  CLOUDY    38  25  59 CALM      30.16F
HUN NWS/UAH      N/A     37  23  57 E2          N/A
MERIDIANVILLE  PTCLDY    34  25  69 CALM      30.16F
REDSTONE ARSN  CLOUDY    36  26  66 CALM      30.14F
VINEMONT AP    FAIR      34  25  68 CALM      30.17F
$$

ALZ008>010-120900-
NORTHEAST ALABAMA

CITY           SKY/WX    TMP DP  RH WIND       PRES   REMARKS
ALBERTVILLE    PTCLDY    32  30  93 CALM      30.14S
FORT PAYNE     PTCLDY    34  23  64 NE3       30.16S
SCOTTSBORO AP  CLOUDY    36  25  64 NE5       30.19S WCI  32
SCOTTSBORO HCN   N/A     36 N/A N/A MISG        N/A
VALLEY HEAD      N/A     34 N/A N/A MISG        N/A
$$

TNZ076-096-097-120900-
SOUTHEASTERN MIDDLE TENNESSEE

CITY           SKY/WX    TMP DP  RH WIND       PRES   REMARKS
TULLAHOMA      CLEAR     30  23  74 NE3       30.15F
WINCHESTER     PTCLDY    30  27  86 CALM      30.16R
$$

...SURROUNDING SITES...

CITY           SKY/WX    TMP DP  RH WIND       PRES   REMARKS
ATLANTA        MOCLDY    40  25  55 E3        30.14F
ANNISTON       CLOUDY    40  24  53 NE6       30.15F
BIRMINGHAM     PTCLDY    44  24  45 NE7       30.15F
CHATTANOOGA    CLOUDY    35  22  58 N8        30.19S WCI  29
DALTON         CLOUDY    34  27  75 CALM      30.18R
GADSDEN        CLOUDY    34  26  72 N5        30.17S WCI  30
GOLDEN TRNGL   PTCLDY    37  28  70 N6        30.14S WCI  33
HALEYVILLE     FAIR      33  25  72 CALM      30.17F
JACKSON TN     CLOUDY    35  23  61 E6        30.18S WCI  30
MEMPHIS        CLOUDY    40  24  53 NE5       30.17S
NASHVILLE      CLOUDY    34  20  56 E5        30.17F WCI  30
OXFORD MS      FAIR      37  25  60 E3        30.17S
ROME           CLOUDY    33  27  78 CALM      30.18R
SAVANNAH       CLOUDY    37  25  60 N5        30.16S WCI  34
TUPELO         MOCLDY    37  25  61 CALM      30.16F
TUSCALOOSA     MOCLDY    40  34  79 CALM      30.15F
$$

...GULF COAST WEATHER...

CITY           SKY/WX    TMP DP  RH WIND       PRES   REMARKS
GULFPORT       CLEAR     58  55  90 W6        30.17S
PASCAGOULA     PTCLDY    56  55  97 W5        30.18S
MOBILE         PTCLDY    57  57 100 SW10      30.17S
GULF SHORES    SUNNY     59  58  97 W10       30.18S
PENSACOLA      CLEAR     61  56  83 W5        30.17
DESTIN         PTCLDY    63  59  87 W9G17     30.16F
PANAMA CITY    CLEAR     62  58  84 W14       30.18F
APPALACHICOLA  PTCLDY    60  58  92 W10       30.19F
$$




USA.gov is the U.S. government's official web portal to all federal, state and local government web resources and services.